Theta_e
312 313 313 313 313 314 314 314 314 314 315 315 315 316 317 318 318 318 318 319 319 319 319 320 320 320 320 320 321 321 321 321 321 322 322 320 317 316 315 316 315 313
309 310 310 311 312 312 312 313 313 312 313 313 314 314 315 315 316 316 316 316 316 317 317 318 318 318 318 318 319 318 318 319 318 320 319 319 319 319 317 317 317 316
307 308 309 309 309 310 310 311 311 311 311 312 312 312 313 313 312 313 313 313 314 314 315 315 316 316 316 316 317 316 316 316 316 317 318 317 317 316 316 317 316 316
306 306 306 307 308 308 309 308 309 310 310 310 310 311 311 311 310 310 311 309 311 311 312 313 313 314 314 314 314 314 314 314 315 315 315 315 315 315 314 315 314 314
304 304 305 305 306 306 307 307 307 307 307 308 308 309 308 309 308 308 308 309 309 309 310 310 311 312 312 312 312 311 311 311 312 313 312 311 312 312 313 313 312 312
303 303 303 303 303 304 304 304 305 305 305 305 306 305 306 306 306 306 306 306 307 307 308 308 309 309 309 310 309 309 309 309 310 310 309 309 309 311 310 311 310 310
301 301 301 301 302 302 302 302 302 302 302 302 302 303 304 304 304 304 305 305 305 305 306 306 306 307 308 307 307 306 307 307 307 307 307 307 308 308 309 309 308 308
299 300 300 300 300 300 300 300 300 300 300 300 300 302 302 301 302 303 303 303 304 304 304 304 305 305 305 305 304 304 304 304 304 304 304 304 305 305 306 306 307 306
299 298 298 298 299 299 298 298 298 299 299 298 299 300 300 300 300 300 301 301 301 302 302 303 303 303 303 303 302 302 301 302 303 303 302 302 302 303 303 304 303 304
298 298 298 298 298 298 297 297 297 297 297 297 298 298 298 299 299 299 299 299 299 300 301 300 300 300 300 301 301 301 300 300 301 301 302 301 301 301 302 302 301 300
297 297 297 297 297 297 297 297 297 297 297 297 297 297 297 297 298 298 298 298 298 299 299 299 300 300 300 300 300 300 300 300 300 300 300 300 301 301 298 300 300 299
296 296 296 296 296 296 296 296 296 296 296 297 296 296 296 297 297 297 297 297 297 297 298 298 298 299 299 299 299 299 299 299 299 299 299 299 299 299 299 299 299 299
295 295 295 295 295 295 295 295 295 295 295 295 296 296 296 296 296 296 296 296 296 297 297 297 297 297 298 298 299 299 299 298 298 298 297 297 297 297 298 298 298 298
295 294 294 294 294 295 295 294 294 295 295 295 295 295 295 295 295 295 296 296 296 296 297 297 296 296 297 297 297 297 297 296 296 295 295 295 295 296 296 296 296 296
294 294 294 294 294 294 294 294 294 294 294 294 294 294 295 294 294 295 294 295 296 296 296 297 297 297 298 297 296 296 296 296 296 296 295 295 295 295 295 296 296 296
293 293 293 293 293 293 292 292 293 293 292 293 293 293 293 293 293 293 294 294 294 294 295 296 296 297 293 291 292 293 294 295 295 295 295 294 294 294 294 295 295 295
292 292 292 292 292 292 291 291 291 291 291 291 292 291 292 292 292 292 293 293 293 293 293 294 295 295 291 292 292 293 293 294 294 294 294 294 293 293 293 293 294 295
291 291 291 291 291 290 290 290 290 289 290 290 290 289 290 291 291 291 292 292 292 292 292 293 293 291 292 292 292 292 292 293 294 293 293 293 293 293 293 293 294 294
290 290 290 290 289 289 289 288 288 289 288 288 288 289 290 290 290 290 290 291 291 291 291 292 292 291 291 291 291 291 292 292 293 293 293 292 293 293 293 293 293 293
289 288 288 289 288 288 288 287 288 287 288 288 288 288 288 288 288 289 289 290 290 290 290 290 291 290 290 291 291 291 291 291 292 292 292 292 292 292 292 292 293 293
288 287 287 287 287 287 286 286 287 287 287 287 287 287 287 287 287 287 288 288 288 288 288 288 290 289 290 290 290 290 290 291 291 291 291 291 291 292 292 292 292 292
287 286 286 286 286 286 286 286 286 286 286 286 286 287 287 287 287 287 287 287 287 287 287 287 289 289 289 289 289 289 290 289 290 290 290 290 290 291 291 292 292 292
286 285 284 284 285 284 284 284 284 285 285 286 285 285 285 286 286 286 286 286 286 286 286 286 287 288 288 288 288 288 288 288 288 288 288 289 289 290 291 291 292 292
285 284 283 283 283 283 283 284 284 284 285 285 284 284 284 285 285 286 286 286 286 285 286 285 286 286 286 287 287 288 288 287 287 287 287 288 288 289 290 290 291 288
284 283 282 282 282 282 282 282 283 283 284 284 284 284 284 285 285 285 285 285 286 285 285 285 285 285 286 286 287 287 287 287 287 287 286 287 288 288 289 290 290 289
283 282 281 281 280 281 281 282 282 283 283 283 283 283 284 284 284 284 283 284 285 285 285 285 285 285 285 286 286 287 287 286 286 286 285 286 286 287 287 287 289 289
Wind_Speed
2 2 3 3 3 4 4 5 5 6 6 6 7 7 7 8 8 9 10 9 10 10 10 10 11 11 10 11 11 11 11 14 14 13 13 11 11 13 13 13 12 11
2 2 2 2 2 2 2 3 4 5 6 6 6 6 7 7 8 8 9 9 10 11 11 11 11 11 12 11 10 11 11 12 15 9 10 15 13 12 15 16 17 13
3 2 2 2 2 3 3 3 3 4 5 5 6 6 6 6 8 8 8 8 9 9 10 10 11 11 11 11 11 10 11 13 14 12 11 13 11 11 11 11 12 14
4 3 3 3 3 3 3 2 3 3 4 4 5 5 5 6 6 8 8 8 8 9 9 10 10 10 10 11 10 10 11 12 12 11 13 11 10 10 11 8 10 10
5 5 4 4 3 3 2 2 3 4 4 5 5 5 5 5 6 6 6 7 8 9 8 9 10 10 10 10 11 11 11 12 13 12 11 12 12 11 11 10 11 12
5 5 5 4 4 4 3 3 4 4 5 5 5 5 5 6 5 6 6 7 7 8 9 9 9 9 9 10 10 11 11 11 11 11 13 12 13 10 9 11 13 14
6 6 7 5 5 4 4 5 4 5 5 5 5 5 5 6 6 6 6 6 7 7 8 8 9 9 8 9 10 11 11 11 12 12 13 13 12 14 12 13 13 14
6 5 5 5 4 4 5 5 5 5 5 5 5 5 5 6 6 5 6 6 6 7 7 8 9 9 9 9 10 11 12 10 11 11 12 14 13 14 11 10 11 12
5 6 5 5 5 5 7 6 6 6 5 6 5 5 5 4 5 6 6 6 6 7 7 7 8 8 9 9 10 11 12 11 10 11 13 13 13 13 12 11 11 12
5 4 5 5 6 5 7 6 5 5 5 5 5 5 6 5 5 5 6 6 6 7 7 7 7 8 9 9 11 11 11 12 11 12 12 12 13 13 13 12 11 12
5 5 6 7 7 6 7 6 6 5 4 5 6 6 6 6 5 4 5 5 5 7 7 7 8 8 9 9 10 11 12 12 12 12 12 12 13 12 12 11 11 12
6 6 7 7 7 6 7 7 6 6 6 4 5 6 6 5 5 5 5 6 6 7 7 8 8 8 9 9 9 10 11 11 12 12 13 13 13 13 12 11 13 12
6 6 5 6 5 6 5 5 5 5 5 6 5 5 5 6 6 6 5 5 6 6 7 7 8 8 8 8 9 10 10 12 12 13 13 12 11 12 12 11 12 12
5 5 5 5 5 5 5 5 5 5 5 5 5 6 6 6 7 7 7 6 6 6 6 6 7 7 8 8 8 9 10 12 12 12 13 12 12 12 12 11 12 12
5 5 5 6 6 6 6 7 6 6 6 6 6 6 5 6 6 6 7 7 7 7 7 6 6 7 5 6 9 10 10 11 12 13 13 14 13 12 11 12 12 12
6 6 6 6 7 7 8 8 8 7 7 7 7 7 7 7 7 6 6 7 8 8 7 6 6 6 8 12 11 10 11 11 11 13 13 13 13 13 13 11 12 11
5 6 6 6 6 6 7 8 8 7 7 7 7 7 8 7 7 8 7 7 8 8 8 6 6 6 12 14 15 16 12 12 12 13 13 13 11 12 13 13 11 12
5 6 6 6 6 6 7 7 6 5 6 7 7 6 7 7 7 7 8 8 7 8 8 7 7 8 12 14 15 15 14 12 12 12 12 12 12 12 13 13 13 12
6 7 7 6 6 6 6 5 4 4 4 5 5 7 7 7 8 8 8 8 7 9 9 8 8 9 12 13 14 15 16 14 12 12 13 13 13 13 13 13 13 12
5 5 6 6 6 6 6 5 5 5 6 6 5 5 6 6 5 7 8 8 8 9 10 9 9 10 13 12 14 15 16 15 12 13 13 14 14 14 12 13 13 13
5 5 6 6 7 5 6 5 6 7 6 6 6 6 6 7 7 7 7 7 8 7 9 10 8 10 12 13 15 17 17 15 12 12 12 13 13 13 13 13 13 12
5 6 6 7 8 7 7 8 7 6 8 8 6 6 6 6 6 5 7 7 7 7 10 11 10 11 13 13 15 16 18 11 10 11 12 13 13 13 13 13 12 11
7 8 8 8 8 8 8 8 9 9 8 7 8 8 7 7 7 7 7 8 9 7 8 10 10 8 10 14 15 16 14 8 9 10 11 12 13 13 13 13 13 13
8 8 9 9 9 9 9 9 8 7 6 6 8 9 10 8 8 9 7 6 7 9 8 9 11 12 12 14 15 15 12 10 9 10 11 12 12 13 11 12 14 15
8 8 8 9 9 9 9 10 9 9 8 7 7 8 10 9 7 8 9 8 5 7 13 12 10 13 12 11 15 15 11 8 9 9 11 11 11 12 12 11 11 11
7 8 8 8 10 10 9 8 8 8 8 8 9 8 9 10 9 9 11 11 10 8 10 9 10 10 12 12 14 16 14 9 8 9 10 12 11 11 12 11 11 11
Wind_Direction
266 259 255 259 259 268 277 277 277 277 277 278 279 283 284 288 291 284 282 276 270 268 268 268 266 266 266 266 265 264 262 262 262 258 251 235 229 229 236 233 228 230
353 318 293 283 274 253 263 271 276 279 279 274 277 285 287 291 292 291 288 286 280 273 273 272 270 268 268 266 265 264 264 264 263 259 261 261 255 241 238 240 243 243
19 348 322 309 308 311 302 291 282 277 282 290 292 286 288 298 297 296 292 288 283 281 278 275 273 272 270 268 269 268 264 262 263 264 262 261 258 256 256 252 249 246
26 14 356 341 326 327 321 311 303 295 295 296 299 300 301 295 294 296 296 289 283 282 279 275 272 269 267 266 266 266 266 267 267 270 268 267 263 262 261 260 259 258
16 14 13 359 349 331 317 320 328 323 316 310 305 306 304 306 301 299 294 292 290 287 285 283 281 279 277 274 268 264 261 261 261 259 258 260 261 259 262 259 259 258
28 19 14 6 353 343 344 356 348 338 329 319 325 319 309 306 300 295 293 291 289 288 287 285 283 281 279 276 273 265 266 265 266 266 265 263 266 260 259 257 256 257
29 22 16 8 360 359 355 8 2 349 345 334 319 315 321 312 304 300 297 293 290 287 286 286 285 283 279 277 273 271 269 269 271 268 268 268 265 268 258 259 259 258
28 26 16 4 354 4 12 11 8 358 345 329 324 324 326 315 308 309 304 301 296 292 289 286 284 284 284 279 277 277 276 274 273 269 266 269 268 266 265 257 260 261
25 23 7 359 6 14 13 10 3 357 349 337 335 329 322 313 316 312 309 304 296 292 291 290 290 288 286 281 277 275 277 274 271 272 272 272 270 267 265 263 260 259
26 6 5 6 13 14 8 4 353 351 346 335 334 326 328 327 316 317 311 305 298 293 289 287 286 285 287 284 281 280 278 276 276 273 270 269 269 270 269 263 260 262
20 13 12 12 10 5 1 355 354 350 349 341 339 336 335 329 327 321 313 308 305 302 301 296 291 287 285 285 283 282 280 278 276 275 273 272 272 272 270 265 263 260
19 13 11 8 2 0 355 349 348 349 342 341 339 330 329 325 324 327 319 312 306 303 298 295 293 290 286 285 284 286 285 282 281 278 276 275 274 273 270 266 265 265
15 10 1 356 354 347 338 338 341 337 338 338 335 324 326 329 329 324 320 311 306 304 299 298 296 293 291 291 290 288 288 289 285 282 279 278 273 271 268 265 261 262
6 357 350 346 340 333 333 336 335 334 335 329 326 328 331 329 327 325 320 312 309 303 300 299 295 292 289 289 288 292 295 292 287 282 283 278 275 272 268 265 263 261
352 350 343 344 338 339 341 340 333 328 325 320 321 318 313 315 313 314 313 310 307 306 308 304 297 294 293 301 305 299 293 292 291 287 284 285 283 278 270 266 265 261
347 350 347 343 349 346 344 338 335 334 330 328 325 323 318 315 313 306 304 305 307 307 302 299 297 293 296 296 289 291 297 293 291 290 288 285 285 283 279 267 267 267
349 350 341 343 342 335 334 332 329 326 320 318 320 319 317 319 315 313 313 310 306 305 303 295 291 291 297 297 299 299 299 296 293 292 289 285 281 281 281 282 273 269
346 340 337 335 337 336 327 320 311 307 310 313 313 317 319 313 308 309 309 308 303 300 296 295 290 288 292 295 293 291 292 293 294 292 289 286 283 280 281 281 280 278
344 341 334 333 334 328 318 310 310 307 314 322 320 318 307 311 313 312 308 309 305 309 306 301 298 297 300 291 288 292 291 291 291 289 288 285 284 281 281 282 282 280
339 331 326 324 321 322 326 324 326 326 324 315 307 311 311 308 312 310 311 315 315 311 306 301 296 302 300 289 288 291 293 293 290 288 285 283 283 282 279 279 278 279
330 326 324 326 329 328 327 325 323 320 317 322 319 316 315 317 316 316 312 308 305 304 302 293 285 296 293 288 290 293 295 295 288 284 282 282 281 279 278 275 275 271
340 338 336 335 333 330 327 326 325 324 321 323 315 308 303 296 294 286 286 294 293 288 294 290 285 292 295 290 292 292 296 293 287 285 284 283 283 281 281 278 274 269
349 346 339 337 336 333 331 330 330 326 323 326 316 308 301 298 292 290 285 288 289 288 281 285 283 279 285 289 289 291 296 293 290 284 281 282 284 286 284 283 277 273
350 348 341 336 334 333 324 319 315 306 306 314 308 307 303 296 295 294 284 272 279 286 286 288 286 286 287 287 288 289 288 289 291 291 287 287 287 285 285 282 280 271
341 339 335 329 324 320 320 314 314 312 307 310 306 303 295 298 298 296 291 286 263 280 296 290 277 287 288 281 285 289 289 286 289 291 290 289 290 290 288 285 283 279
333 329 324 326 319 311 309 304 305 307 308 311 306 303 300 302 301 296 294 291 288 281 284 280 280 281 290 282 284 285 283 281 287 288 286 290 289 291 294 291 285 283